N8FIS Weather Reports


time (UTC)temp
C
wind
direction
speed
KPH
gust
KPH
rain 1hr
cm
rain 24hr
cm
rain mn
cm
humidity
%
barometer
mb
20260508175551 15 191 6.4 12.9 0.00 0.05 0.05 71 1009.9
20260508175056 15 148 4.8 14.5 0.00 0.05 0.05 72 1009.7
20260508174601 15 232 6.4 14.5 0.00 0.05 0.05 70 1009.7
20260508174105 15 241 3.2 9.7 0.00 0.05 0.05 70 1009.9
20260508173552 15 325 3.2 9.7 0.00 0.05 0.05 71 1009.9
20260508173118 15 227 3.2 9.7 0.00 0.05 0.05 72 1010.0
20260508172627 15 254 3.2 17.7 0.00 0.05 0.05 75 1010.1
20260508172053 14 154 4.8 17.7 0.00 0.05 0.05 73 1010.2
20260508171558 15 234 3.2 16.1 0.00 0.05 0.05 74 1010.2
20260508171104 15 199 1.6 16.1 0.00 0.05 0.05 75 1010.2
20260508170549 14 209 6.4 14.5 0.00 0.05 0.05 77 1010.3
20260508170053 14 202 4.8 11.3 0.00 0.05 0.05 76 1010.5
20260508165557 13 263 3.2 9.7 0.00 0.05 0.05 77 1010.7
20260508165126 13 190 4.8 9.7 0.00 0.05 0.05 79 1010.8
20260508164550 13 194 1.6 8.0 0.00 0.05 0.05 79 1010.8
20260508164058 13 167 3.2 8.0 0.00 0.05 0.05 81 1010.8
20260508163604 12 178 0.0 4.8 0.00 0.05 0.05 81 1010.8
20260508163051 12 267 1.6 6.4 0.00 0.05 0.05 80 1010.9
20260508162555 12 302 1.6 6.4 0.00 0.05 0.05 80 1011.2
20260508162115 12 275 0.0 4.8 0.00 0.05 0.05 79 1011.2
20260508161604 12 252 1.6 6.4 0.00 0.05 0.05 79 1011.3
20260508161108 12 216 1.6 6.4 0.00 0.05 0.05 77 1011.3
20260508160553 12 360 1.6 4.8 0.00 0.05 0.05 76 1011.2
20260508160100 12 170 0.0 4.8 0.00 0.05 0.05 76 1011.1
20260508155604 13 323 1.6 4.8 0.00 0.05 0.05 77 1011.2
20260508155116 12 288 0.0 3.2 0.00 0.05 0.05 77 1011.2
20260508154558 12 273 1.6 6.4 0.00 0.05 0.05 77 1011.2
20260508154102 12 160 1.6 6.4 0.00 0.05 0.05 76 1011.2
20260508153606 12 273 1.6 8.0 0.00 0.05 0.05 76 1011.1
20260508153050 12 289 1.6 8.0 0.00 0.05 0.05 76 1011.2
20260508152618 12 209 1.6 4.8 0.00 0.05 0.05 76 1011.2
20260508152127 12 296 0.0 4.8 0.00 0.05 0.05 76 1011.1
20260508151611 12 298 0.0 16.1 0.00 0.05 0.05 75 1011.1
20260508151055 12 268 1.6 16.1 0.00 0.05 0.05 75 1011.2
20260508150601 12 15 0.0 8.0 0.00 0.05 0.05 75 1011.2
20260508150104 13 348 0.0 11.3 0.00 0.05 0.05 74 1011.1
20260508145548 13 271 1.6 9.7 0.00 0.05 0.05 74 1011.2
20260508145054 13 232 1.6 9.7 0.00 0.05 0.05 73 1011.1
20260508144600 13 335 1.6 9.7 0.00 0.05 0.05 75 1011.2
20260508144126 13 264 1.6 9.7 0.00 0.05 0.05 74 1011.0
20260508143550 13 304 0.0 3.2 0.00 0.05 0.05 73 1011.0
20260508143056 14 304 1.6 4.8 0.00 0.05 0.05 73 1011.2
20260508142601 13 234 1.6 4.8 0.00 0.05 0.05 75 1011.1
20260508142048 13 187 1.6 4.8 0.00 0.05 0.05 76 1011.1
20260508141618 12 211 0.0 3.2 0.00 0.05 0.05 76 1011.0
20260508141058 12 315 1.6 4.8 0.00 0.05 0.05 76 1010.9
20260508140603 12 298 1.6 4.8 0.00 0.05 0.05 76 1011.1
20260508140049 12 113 1.6 4.8 0.00 0.05 0.05 77 1011.1
20260508135554 12 9 1.6 4.8 0.00 0.05 0.05 78 1011.2
20260508135058 11 271 1.6 8.0 0.00 0.05 0.05 77 1011.4
20260508134604 12 292 3.2 8.0 0.00 0.05 0.05 77 1011.4
20260508134049 12 126 3.2 4.8 0.00 0.05 0.05 76 1011.4
20260508133554 12 331 1.6 4.8 0.00 0.05 0.05 76 1011.4
20260508133053 12 331 1.6 8.0 0.00 0.05 0.05 77 1011.4
20260508132558 12 275 3.2 8.0 0.00 0.05 0.05 78 1011.4
20260508132103 12 330 1.6 4.8 0.00 0.05 0.05 79 1011.3
20260508131550 11 294 0.0 6.4 0.00 0.05 0.05 79 1011.2
20260508131101 11 257 1.6 6.4 0.00 0.05 0.05 79 1011.2
20260508130604 11 274 1.6 4.8 0.00 0.05 0.05 80 1011.2
20260508130121 11 5 1.6 4.8 0.00 0.05 0.05 82 1011.2
20260508125606 10 333 1.6 6.4 0.00 0.05 0.05 81 1011.3
20260508125050 10 267 1.6 6.4 0.00 0.05 0.05 82 1011.3
20260508124554 10 311 0.0 4.8 0.00 0.05 0.05 83 1011.3
20260508124058 10 284 1.6 3.2 0.00 0.05 0.05 83 1011.4
20260508123604 9 298 1.6 6.4 0.00 0.05 0.05 83 1011.5
20260508123119 9 78 3.2 8.0 0.00 0.05 0.05 83 1011.5
20260508122558 9 301 1.6 8.0 0.00 0.05 0.05 83 1011.4
20260508122105 9 207 3.2 14.5 0.00 0.05 0.05 83 1011.4
20260508121549 9 313 3.2 14.5 0.00 0.05 0.05 83 1011.5
20260508121055 8 235 3.2 9.7 0.00 0.05 0.05 84 1011.5
20260508120559 8 318 1.6 8.0 0.00 0.05 0.05 85 1011.4
20260508120104 8 175 0.0 8.0 0.00 0.05 0.05 84 1011.2
20260508115548 8 230 1.6 6.4 0.00 0.05 0.05 85 1011.1
20260508115053 8 202 1.6 6.4 0.00 0.05 0.05 86 1011.0
20260508114618 8 199 0.0 6.4 0.00 0.05 0.05 86 1011.0
20260508114126 8 223 1.6 4.8 0.00 0.05 0.05 87 1010.8
20260508113619 8 275 1.6 6.4 0.00 0.05 0.05 87 1010.8
20260508113103 7 252 1.6 4.8 0.00 0.05 0.05 88 1010.7
20260508112550 7 217 0.0 4.8 0.00 0.05 0.05 88 1010.7
20260508112056 7 170 1.6 4.8 0.00 0.05 0.05 89 1010.7
20260508111623 7 252 1.6 4.8 0.00 0.05 0.05 89 1010.6
20260508111106 7 233 1.6 4.8 0.00 0.05 0.05 89 1010.6
20260508110610 7 175 1.6 3.2 0.00 0.05 0.05 89 1010.5
20260508110055 7 185 1.6 3.2 0.00 0.05 0.05 89 1010.3
20260508105559 7 175 1.6 4.8 0.00 0.05 0.05 89 1010.4
20260508105103 7 197 1.6 4.8 0.00 0.05 0.05 89 1010.5
20260508104604 7 186 0.0 1.6 0.00 0.05 0.05 88 1010.5
20260508104053 7 186 0.0 4.8 0.00 0.05 0.05 88 1010.5
20260508103624 7 186 1.6 4.8 0.00 0.05 0.05 88 1010.5
20260508103050 7 298 0.0 3.2 0.00 0.05 0.05 88 1010.4
20260508102555 7 261 1.6 3.2 0.00 0.05 0.05 88 1010.4
20260508102058 7 194 1.6 6.4 0.00 0.05 0.05 88 1010.3
20260508101604 7 197 0.0 6.4 0.00 0.05 0.05 88 1010.3
20260508101048 7 171 1.6 4.8 0.00 0.05 0.05 88 1010.3
20260508100620 7 221 0.0 3.2 0.03 0.05 0.05 87 1010.3
20260508100104 7 202 1.6 6.4 0.05 0.05 0.05 87 1010.3
20260508095615 7 199 3.2 6.4 0.05 0.05 0.05 87 1010.3
20260508095100 7 194 1.6 4.8 0.05 0.05 0.05 87 1010.4
20260508094604 8 171 1.6 4.8 0.05 0.05 0.05 87 1010.4
20260508094049 8 188 0.0 4.8 0.05 0.05 0.05 87 1010.5
20260508093552 8 186 1.6 6.4 0.05 0.05 0.05 87 1010.6
20260508093057 8 188 1.6 6.4 0.05 0.05 0.05 87 1010.6
20260508092605 8 237 1.6 3.2 0.05 0.05 0.05 87 1010.6
20260508092048 8 175 3.2 3.2 0.05 0.05 0.05 86 1010.6
20260508091557 8 184 0.0 6.4 0.05 0.05 0.05 86 1010.5
20260508091101 8 242 1.6 11.3 0.05 0.05 0.05 85 1010.5
20260508090544 8 205 4.8 11.3 0.03 0.03 0.03 84 1010.7
20260508090111 8 328 1.6 6.4 0.00 0.00 0.00 83 1010.7
20260508085553 8 186 1.6 6.4 0.00 0.00 0.00 84 1010.6
20260508085121 8 184 3.2 6.4 0.00 0.00 0.00 84 1010.7
20260508084605 8 182 3.2 4.8 0.00 0.00 0.00 84 1010.6
20260508084110 8 252 1.6 4.8 0.00 0.00 0.00 84 1010.6
20260508083549 8 242 1.6 3.2 0.00 0.00 0.00 84 1010.6
20260508083053 8 105 1.6 6.4 0.00 0.00 0.00 84 1010.5
20260508082601 8 150 1.6 6.4 0.00 0.00 0.00 84 1010.6
20260508082104 8 274 0.0 1.6 0.00 0.00 0.00 85 1010.6
20260508081548 8 345 0.0 6.4 0.00 0.00 0.00 85 1010.7
20260508081052 8 215 0.0 6.4 0.00 0.00 0.00 85 1010.7
20260508080558 8 211 1.6 6.4 0.00 0.00 0.00 85 1010.7
20260508080100 8 250 3.2 6.4 0.00 0.00 0.00 86 1010.7
20260508075605 8 222 0.0 6.4 0.00 0.00 0.00 86 1010.6
20260508075118 7 190 1.6 6.4 0.00 0.00 0.00 86 1010.6
20260508074603 7 219 1.6 9.7 0.00 0.00 0.00 87 1010.6
20260508074050 7 136 0.0 6.4 0.00 0.00 0.00 87 1010.6
20260508073554 7 180 1.6 6.4 0.00 0.00 0.00 87 1010.7
20260508073058 7 186 1.6 6.4 0.00 0.00 0.00 87 1010.8
20260508072624 7 175 3.2 6.4 0.00 0.00 0.00 86 1010.9
20260508072107 7 229 0.0 4.8 0.00 0.00 0.00 86 1010.9
20260508071554 7 179 0.0 4.8 0.00 0.00 0.00 86 1010.9
20260508071124 7 171 1.6 8.0 0.00 0.00 0.00 85 1010.9
20260508070549 7 251 1.6 8.0 0.00 0.00 0.00 85 1010.9
20260508070054 7 171 1.6 8.0 0.00 0.00 0.00 85 1011.0
20260508065614 7 177 3.2 8.0 0.00 0.00 0.00 85 1011.1
20260508065124 7 175 1.6 9.7 0.00 0.00 0.00 85 1011.1
20260508064615 7 180 0.0 9.7 0.00 0.00 0.00 84 1011.2
20260508064103 7 179 1.6 4.8 0.00 0.00 0.00 84 1011.2
20260508063554 7 252 1.6 4.8 0.00 0.00 0.00 83 1011.2
20260508063101 7 184 0.0 4.8 0.00 0.00 0.00 83 1011.2
20260508062605 8 138 0.0 3.2 0.00 0.00 0.00 83 1011.3
20260508062049 8 258 0.0 4.8 0.00 0.00 0.00 83 1011.3
20260508061556 8 213 1.6 4.8 0.00 0.00 0.00 82 1011.3
20260508061101 8 255 3.2 4.8 0.00 0.00 0.00 82 1011.3
20260508060607 8 252 1.6 9.7 0.00 0.00 0.00 82 1011.3
20260508060122 8 261 3.2 9.7 0.00 0.00 0.00 81 1011.3
20260508055606 8 266 3.2 17.7 0.00 0.00 0.00 81 1011.4
20260508055052 8 309 1.6 17.7 0.00 0.00 0.00 80 1011.4
20260508054552 8 306 1.6 16.1 0.00 0.00 0.00 80 1011.4
20260508054058 8 169 0.0 12.9 0.00 0.00 0.00 79 1011.5
20260508053602 8 342 3.2 12.9 0.00 0.00 0.00 79 1011.6
20260508053052 9 298 0.0 6.4 0.00 0.00 0.00 78 1011.6
20260508052557 9 336 1.6 8.0 0.00 0.00 0.00 77 1011.4
20260508052102 9 5 1.6 8.0 0.00 0.00 0.00 77 1011.4
20260508051616 9 303 0.0 4.8 0.00 0.00 0.00 76 1011.4
20260508051059 9 235 0.0 11.3 0.00 0.00 0.00 76 1011.3
20260508050601 9 191 1.6 14.5 0.00 0.00 0.00 75 1011.3
20260508050050 9 190 4.8 14.5 0.00 0.00 0.00 74 1011.3
20260508045557 9 236 3.2 17.7 0.00 0.00 0.00 74 1011.4
20260508045102 10 248 3.2 17.7 0.00 0.00 0.00 73 1011.5
20260508044555 10 232 1.6 16.1 0.00 0.00 0.00 72 1011.5
20260508044058 9 322 3.2 16.1 0.00 0.00 0.00 73 1011.5
20260508043604 9 193 1.6 6.4 0.00 0.00 0.00 74 1011.5
20260508043107 9 180 1.6 6.4 0.00 0.00 0.00 74 1011.6
20260508042555 8 190 1.6 4.8 0.00 0.00 0.00 75 1011.6
20260508042047 8 192 1.6 4.8 0.00 0.00 0.00 75 1011.6
20260508041551 8 196 0.0 3.2 0.00 0.00 0.00 75 1011.5
20260508041123 8 167 1.6 4.8 0.00 0.00 0.00 76 1011.4
20260508040549 8 184 1.6 4.8 0.00 0.00 0.00 76 1011.5
20260508040054 8 185 1.6 3.2 0.00 0.00 0.00 76 1011.5
20260508035554 8 178 0.0 3.2 0.00 0.00 0.00 76 1011.5
20260508035100 8 173 1.6 3.2 0.00 0.00 0.00 76 1011.5
20260508034605 8 184 0.0 4.8 0.00 0.00 0.00 75 1011.6
20260508034051 8 183 0.0 4.8 0.00 0.00 0.00 75 1011.7
20260508033600 8 175 1.6 4.8 0.00 0.00 0.00 75 1011.7
20260508033105 9 215 0.0 1.6 0.00 0.00 0.00 74 1011.8
20260508032549 9 189 0.0 1.6 0.00 0.00 0.00 74 1011.7
20260508032112 9 197 0.0 3.2 0.00 0.00 0.00 73 1011.7
20260508031556 9 197 0.0 3.2 0.00 0.00 0.00 72 1011.8
20260508031102 9 178 0.0 4.8 0.00 0.00 0.00 72 1011.7
20260508030549 9 176 0.0 4.8 0.00 0.00 0.00 71 1011.8
20260508030054 9 173 1.6 3.2 0.00 0.00 0.00 71 1011.9
20260508025600 10 173 0.0 3.2 0.00 0.00 0.00 70 1011.9
20260508025104 10 193 1.6 8.0 0.00 0.00 0.00 70 1012.1
20260508024550 10 188 0.0 9.7 0.00 0.00 0.00 69 1012.0
20260508024054 10 222 0.0 9.7 0.00 0.00 0.00 69 1012.1
20260508023559 10 177 1.6 4.8 0.00 0.00 0.00 69 1012.1
20260508023104 10 173 1.6 6.4 0.00 0.00 0.00 68 1012.1
20260508022549 10 200 1.6 6.4 0.00 0.00 0.00 68 1012.0
20260508022053 10 207 0.0 4.8 0.00 0.00 0.00 68 1012.0
20260508021558 10 140 0.0 9.7 0.00 0.00 0.00 68 1012.1
20260508021102 10 178 1.6 9.7 0.00 0.00 0.00 67 1012.1
20260508020544 10 243 0.0 8.0 0.00 0.00 0.00 67 1012.0
20260508020053 10 259 1.6 6.4 0.00 0.00 0.00 66 1012.0
20260508015558 10 148 1.6 4.8 0.00 0.00 0.00 65 1012.0
20260508015104 10 268 0.0 8.0 0.00 0.00 0.00 64 1012.0
20260508014615 10 261 3.2 8.0 0.00 0.00 0.00 63 1012.0
20260508014058 10 196 1.6 8.0 0.00 0.00 0.00 63 1012.1
20260508013604 11 67 0.0 8.0 0.00 0.00 0.00 62 1012.1
20260508013049 11 241 4.8 11.3 0.00 0.00 0.00 61 1012.0
20260508012553 11 242 3.2 11.3 0.00 0.00 0.00 60 1011.9
20260508012057 11 190 4.8 11.3 0.00 0.00 0.00 59 1011.8
20260508011605 11 265 1.6 11.3 0.00 0.00 0.00 58 1011.7
20260508011049 11 178 6.4 11.3 0.00 0.00 0.00 57 1011.6
20260508010554 11 288 1.6 11.3 0.00 0.00 0.00 56 1011.6
20260508010100 11 303 4.8 11.3 0.00 0.00 0.00 55 1011.5
20260508005604 11 276 3.2 11.3 0.00 0.00 0.00 54 1011.5
20260508005049 12 270 4.8 9.7 0.00 0.00 0.00 53 1011.4
20260508004556 12 257 1.6 16.1 0.00 0.00 0.00 52 1011.4
20260508004045 12 22 4.8 16.1 0.00 0.00 0.00 51 1011.3
20260508003555 12 162 3.2 14.5 0.00 0.00 0.00 49 1011.2
20260508003058 12 294 3.2 14.5 0.00 0.00 0.00 49 1011.2
20260508002604 12 224 3.2 11.3 0.00 0.00 0.00 48 1011.1
20260508002049 12 301 0.0 12.9 0.00 0.00 0.00 46 1011.0
20260508001557 12 252 1.6 12.9 0.00 0.00 0.00 46 1010.9
20260508001047 12 311 4.8 8.0 0.00 0.00 0.00 47 1011.0
20260508000618 12 261 0.0 3.2 0.00 0.00 0.00 48 1011.0
20260508000105 12 312 0.0 3.2 0.00 0.00 0.00 47 1010.8
20260507235609 13 323 0.0 1.6 0.00 0.00 0.00 46 1010.8
20260507235059 13 294 0.0 3.2 0.00 0.00 0.00 47 1010.7
20260507234605 13 328 0.0 3.2 0.00 0.00 0.00 45 1010.8
20260507234050 13 140 0.0 3.2 0.00 0.00 0.00 45 1010.7
20260507233556 13 62 0.0 4.8 0.00 0.00 0.00 44 1010.8
20260507233102 13 303 1.6 4.8 0.00 0.00 0.00 44 1010.7
20260507232612 13 252 1.6 3.2 0.00 0.00 0.00 44 1010.7
20260507232109 13 300 0.0 3.2 0.00 0.00 0.00 43 1010.6
20260507231619 13 319 1.6 3.2 0.00 0.00 0.00 42 1010.8
20260507231104 13 213 1.6 3.2 0.00 0.00 0.00 44 1010.8
20260507230549 13 332 1.6 8.0 0.00 0.00 0.00 43 1010.8
20260507230053 14 325 3.2 8.0 0.00 0.00 0.00 42 1010.7
20260507225559 13 339 0.0 3.2 0.00 0.00 0.00 43 1010.8
20260507225105 13 213 0.0 4.8 0.00 0.00 0.00 43 1010.8
20260507224551 14 225 1.6 4.8 0.00 0.00 0.00 41 1010.8
20260507224056 14 321 0.0 4.8 0.00 0.00 0.00 42 1010.9
20260507223602 14 331 1.6 8.0 0.00 0.00 0.00 42 1010.9
20260507223051 15 296 0.0 8.0 0.00 0.00 0.00 41 1010.9
20260507222556 15 315 1.6 9.7 0.00 0.00 0.00 40 1011.0
20260507222100 15 333 3.2 9.7 0.00 0.00 0.00 40 1011.0
20260507221604 15 336 1.6 4.8 0.00 0.00 0.00 38 1011.0
20260507221050 15 336 0.0 8.0 0.00 0.00 0.00 42 1010.9
20260507220556 15 340 3.2 11.3 0.00 0.00 0.00 41 1011.0
20260507220058 15 342 3.2 11.3 0.00 0.00 0.00 41 1011.0
20260507215605 15 313 3.2 9.7 0.00 0.00 0.00 41 1010.9
20260507215050 15 311 1.6 11.3 0.00 0.00 0.00 42 1010.8
20260507214557 15 328 4.8 11.3 0.00 0.00 0.00 40 1010.8
20260507214102 15 322 3.2 8.0 0.00 0.00 0.00 40 1010.9
20260507213608 15 322 1.6 6.4 0.00 0.00 0.00 43 1010.8
20260507213119 15 294 1.6 9.7 0.00 0.00 0.00 44 1010.8
20260507212605 15 271 1.6 9.7 0.00 0.00 0.00 44 1010.9
20260507212051 14 347 1.6 6.4 0.00 0.00 0.00 44 1011.0
20260507211558 15 336 1.6 11.3 0.00 0.00 0.00 43 1011.0
20260507211104 15 241 3.2 17.7 0.00 0.00 0.00 41 1011.0
20260507210615 15 333 4.8 17.7 0.00 0.00 0.00 40 1010.9
20260507205548 16 355 3.2 12.9 0.00 0.00 0.00 42 1011.0
20260507205053 15 5 1.6 11.3 0.00 0.00 0.00 43 1011.0
20260507204622 15 316 1.6 16.1 0.00 0.00 0.00 44 1010.9
20260507204048 15 340 6.4 22.5 0.00 0.00 0.00 43 1010.9
20260507203554 15 304 3.2 22.5 0.00 0.00 0.00 42 1010.9
20260507203101 15 279 4.8 11.3 0.00 0.00 0.00 45 1011.0
20260507202550 15 273 3.2 8.0 0.00 0.00 0.00 43 1011.0
20260507202056 14 298 3.2 6.4 0.00 0.00 0.00 44 1011.0
20260507201605 14 308 1.6 8.0 0.00 0.00 0.00 45 1011.0
20260507201116 14 317 1.6 9.7 0.00 0.00 0.00 43 1011.0
20260507200601 15 248 3.2 9.7 0.00 0.00 0.00 42 1011.1
20260507200049 15 296 3.2 16.1 0.00 0.00 0.00 46 1011.0
20260507195619 14 35 1.6 16.1 0.00 0.00 0.00 44 1011.1
20260507195048 15 332 1.6 8.0 0.00 0.00 0.00 43 1011.1
20260507194558 15 193 3.2 8.0 0.00 0.00 0.00 40 1011.0
20260507194102 16 43 1.6 16.1 0.00 0.00 0.00 43 1011.0
20260507193614 15 189 3.2 20.9 0.00 0.00 0.00 44 1011.0
20260507193054 16 360 3.2 9.7 0.00 0.00 0.00 41 1011.1
20260507192601 16 336 3.2 9.7 0.00 0.00 0.00 43 1011.1
20260507192108 16 360 1.6 8.0 0.00 0.00 0.00 42 1011.2
20260507191619 16 24 1.6 8.0 0.00 0.00 0.00 42 1011.2
20260507191105 16 274 1.6 11.3 0.00 0.00 0.00 44 1011.3
20260507190550 16 294 3.2 11.3 0.00 0.00 0.00 42 1011.3
20260507185605 15 355 3.2 8.0 0.00 0.00 0.00 44 1011.5
20260507185049 15 333 3.2 6.4 0.00 0.00 0.00 47 1011.4
20260507184600 15 332 3.2 9.7 0.00 0.00 0.00 44 1011.5
20260507184105 15 288 1.6 9.7 0.00 0.00 0.00 47 1011.4
20260507183550 14 265 3.2 8.0 0.00 0.00 0.00 46 1011.5
20260507183054 14 304 3.2 14.5 0.00 0.00 0.00 45 1011.6
20260507182555 13 16 3.2 11.3 0.00 0.00 0.00 49 1011.6
20260507182101 13 286 3.2 9.7 0.00 0.00 0.00 48 1011.6
20260507181546 13 310 1.6 9.7 0.00 0.00 0.00 48 1011.6
20260507181055 13 310 3.2 11.3 0.00 0.00 0.00 48 1011.6
20260507180600 13 265 3.2 11.3 0.00 0.00 0.00 49 1011.5
20260507180104 14 260 3.2 11.3 0.00 0.00 0.00 48 1011.7